period_start,C,m1,H,J0,J1,J2,J3,J4,J5,JA,JB,JC,JD,JJ,JK,JN,#
2016-03-12 00:00:55,0.08,0.48,0.00,14.30,18.54,22.97,15.16,48.86,1022.49,2067.00,3407.85,3063.83,3471.90,600.03,617.66,5.99,0000 0000 0000 0000 000000
2016-03-12 00:05:56,0.09,0.48,0.00,14.32,18.56,23.01,15.18,48.94,1022.50,2067.00,3406.10,3062.54,3470.48,600.17,617.85,6.04,0000 0000 0000 0000 000000
2016-03-12 00:10:57,0.08,0.49,0.00,14.33,18.57,23.00,15.07,49.01,1022.53,2067.00,3404.21,3061.26,3468.88,599.72,617.40,6.09,0000 0000 0000 0000 000000
2016-03-12 00:15:59,0.07,0.49,0.00,14.36,18.57,23.00,15.15,49.00,1022.66,2067.00,3402.43,3059.95,3467.43,599.70,617.30,6.14,0000 0000 0000 0000 000000
2016-03-12 00:21:00,0.09,0.50,0.00,14.40,18.59,23.08,15.09,48.87,1022.79,2067.00,3400.77,3058.72,3465.86,599.57,617.06,6.19,0000 0000 0000 0000 000000
2016-03-12 00:26:01,0.06,0.50,0.00,14.39,18.59,23.05,15.10,48.73,1022.82,2066.99,3399.33,3057.63,3464.53,599.94,617.56,6.24,0000 0000 0000 0000 000000
2016-03-12 00:31:03,0.06,0.50,0.00,14.42,18.61,23.07,15.11,48.87,1022.92,2066.99,3397.77,3056.64,3463.46,599.94,617.49,6.29,0000 0000 0000 0000 000000
2016-03-12 00:36:04,0.06,0.51,0.00,14.43,18.62,23.09,15.14,48.83,1022.94,2066.97,3396.36,3055.59,3462.20,600.23,617.82,6.34,0000 0000 0000 0000 000000
2016-03-12 00:41:06,0.07,0.51,0.00,14.46,18.63,23.10,15.12,48.93,1022.96,2066.96,3394.79,3054.47,3460.84,599.81,617.37,6.39,0000 0000 0000 0000 000000
2016-03-12 00:46:07,0.05,0.51,0.00,14.48,18.64,23.10,15.09,48.77,1022.96,2066.86,3393.22,3053.33,3459.59,599.78,617.29,6.44,0000 0000 0000 0000 000000
2016-03-12 00:51:08,0.07,0.52,0.00,14.51,18.65,23.11,15.18,48.88,1022.96,2066.88,3391.69,3052.29,3458.52,600.13,617.65,6.49,0000 0000 0000 0000 000000
2016-03-12 00:56:09,0.05,0.52,0.00,14.54,18.67,23.16,15.11,48.91,1022.96,2066.78,3390.15,3051.14,3457.20,599.54,616.96,6.54,0000 0000 0000 0000 000000
2016-03-12 01:01:10,0.07,0.52,0.00,14.57,18.68,23.15,15.11,49.00,1022.95,2066.58,3388.37,3049.91,3455.83,599.79,617.16,6.59,0000 0000 0000 0000 000000
2016-03-12 01:06:11,0.06,0.53,0.00,14.61,18.69,23.15,15.19,48.99,1022.96,2066.34,3386.51,3048.58,3454.48,600.07,617.35,6.64,0000 0000 0000 0000 000000
2016-03-12 01:11:13,0.07,0.53,0.00,14.62,18.70,23.18,15.14,48.88,1022.96,2066.21,3384.73,3047.43,3453.17,600.14,617.43,6.69,0000 0000 0000 0000 000000
2016-03-12 01:16:14,0.06,0.53,0.00,14.67,18.72,23.18,15.17,48.93,1022.96,2066.15,3383.00,3046.18,3451.77,600.13,617.48,6.74,0000 0000 0000 0000 000000
2016-03-12 01:21:15,0.08,0.54,0.00,14.69,18.74,23.23,15.10,48.86,1022.96,2066.04,3381.22,3044.87,3450.30,600.14,617.20,6.79,0000 0000 0000 0000 000000
2016-03-12 01:26:17,0.08,0.54,0.00,14.73,18.77,23.18,15.07,48.95,1022.96,2066.03,3379.47,3043.65,3448.77,599.96,616.97,6.84,0000 0000 0000 0000 000000
2016-03-12 01:31:18,0.08,0.55,0.00,14.75,18.79,23.22,15.08,49.00,1022.96,2066.01,3377.74,3042.38,3447.36,599.98,616.98,6.89,0000 0000 0000 0000 000000
2016-03-12 01:36:19,0.07,0.55,0.00,14.79,18.82,23.27,15.13,48.92,1022.97,2066.00,3376.16,3041.20,3445.94,599.92,616.73,6.94,0000 0000 0000 0000 000000
2016-03-12 01:41:21,0.08,0.56,0.00,14.80,18.85,23.32,15.17,48.88,1022.97,2066.00,3374.34,3039.97,3444.54,599.83,616.66,6.99,0000 0000 0000 0000 000000
2016-03-12 01:46:22,0.09,0.56,0.00,14.84,18.88,23.33,15.17,49.01,1022.99,2066.00,3372.50,3038.63,3443.05,600.06,616.75,7.04,0000 0000 0000 0000 000000
2016-03-12 01:51:24,0.07,0.56,0.00,14.89,18.91,23.39,15.12,49.08,1023.14,2065.99,3370.78,3037.38,3441.69,599.57,616.19,7.09,0000 0000 0000 0000 000000
2016-03-12 01:56:25,0.08,0.57,0.00,14.92,18.94,23.38,15.18,49.08,1023.18,2065.94,3369.02,3036.00,3440.18,600.13,616.84,7.14,0000 0000 0000 0000 000000
2016-03-12 02:01:26,0.05,0.57,0.00,14.96,18.98,23.45,15.17,49.05,1023.37,2065.64,3367.19,3034.76,3438.66,600.26,616.98,7.19,0000 0000 0000 0000 000000
2016-03-12 02:06:28,0.06,0.57,0.00,15.00,19.01,23.47,15.08,49.13,1023.43,2065.33,3365.42,3033.44,3437.13,599.97,616.64,7.24,0000 0000 0000 0000 000000
2016-03-12 02:11:30,0.06,0.58,0.00,15.04,19.05,23.48,15.08,49.09,1023.44,2065.04,3363.56,3032.01,3435.62,600.01,616.69,7.29,0000 0000 0000 0000 000000
2016-03-12 02:16:31,0.09,0.58,0.00,15.08,19.08,23.52,15.17,49.07,1023.45,2065.01,3361.72,3030.71,3434.18,600.30,616.83,7.35,0000 0000 0000 0000 000000
2016-03-12 02:21:32,0.09,0.59,0.00,15.10,19.12,23.58,15.11,48.86,1023.45,2065.00,3359.61,3029.27,3432.41,600.14,616.65,7.40,0000 0000 0000 0000 000000
2016-03-12 02:26:33,0.08,0.59,0.00,15.13,19.15,23.61,15.12,48.93,1023.45,2065.00,3357.77,3027.94,3430.91,599.83,616.25,7.45,0000 0000 0000 0000 000000
2016-03-12 02:31:35,0.10,0.60,0.00,15.18,19.19,23.65,15.07,49.01,1023.45,2064.97,3355.68,3026.43,3429.23,600.31,616.57,7.50,0000 0000 0000 0000 000000
2016-03-12 02:36:36,0.09,0.60,0.00,15.23,19.23,23.68,15.12,48.90,1023.45,2064.77,3353.23,3024.74,3427.29,599.89,616.13,7.55,0000 0000 0000 0000 000000
2016-03-12 02:41:37,0.07,0.60,0.00,15.26,19.26,23.78,15.08,49.02,1023.45,2064.39,3350.82,3023.15,3425.43,600.04,616.26,7.60,0000 0000 0000 0000 000000
2016-03-12 02:46:39,0.07,0.61,0.00,15.29,19.29,23.78,15.09,49.04,1023.45,2064.09,3348.61,3021.61,3423.74,600.01,616.09,7.65,0000 0000 0000 0000 000000
2016-03-12 02:51:40,0.12,0.61,0.00,15.35,19.33,23.77,15.08,49.01,1023.45,2064.01,3346.05,3019.81,3421.67,600.10,616.03,7.70,0000 0000 0000 0000 000000
2016-03-12 02:56:41,0.12,0.62,0.00,15.39,19.37,23.84,15.11,49.09,1023.45,2064.00,3343.54,3018.06,3419.61,599.78,615.63,7.75,0000 0000 0000 0000 000000
2016-03-12 03:01:43,0.16,0.63,0.00,15.44,19.41,23.90,15.12,49.09,1023.47,2063.98,3339.92,3015.46,3416.64,599.93,615.72,7.80,0000 0000 0000 0000 000000
2016-03-12 03:06:44,0.14,0.64,0.00,15.48,19.46,23.90,15.06,49.04,1023.48,2063.90,3336.76,3013.14,3413.98,599.61,615.18,7.85,0000 0000 0000 0000 000000
2016-03-12 03:11:45,0.06,0.64,0.00,15.53,19.50,24.07,15.11,48.90,1023.48,2063.62,3334.71,3011.66,3412.17,600.18,615.77,7.90,0000 0000 0000 0000 000000
2016-03-12 03:16:46,0.06,0.64,0.00,15.57,19.54,24.06,15.03,48.96,1023.49,2063.15,3332.41,3010.05,3410.32,599.83,615.33,7.95,0000 0000 0000 0000 000000
2016-03-12 03:21:47,0.21,0.65,0.00,15.62,19.58,24.00,15.07,48.92,1023.50,2063.01,3328.36,3007.28,3407.06,600.04,615.44,8.00,0000 0000 0000 0000 000000
2016-03-12 03:26:49,0.38,0.67,0.00,15.67,19.63,24.08,15.13,48.88,1023.55,2063.00,3321.22,3002.26,3401.25,600.52,615.83,8.05,0000 0000 0000 0000 000000
2016-03-12 03:31:50,0.50,0.69,0.00,15.73,19.66,24.10,15.13,48.95,1023.66,2062.98,3311.26,2995.20,3393.21,600.00,615.28,8.10,0000 0000 0000 0000 000000
2016-03-12 03:36:51,0.34,0.71,0.00,15.75,19.70,24.17,15.06,48.91,1023.78,2062.96,3303.12,2989.39,3386.61,600.02,615.31,8.15,0000 0000 0000 0000 000000
2016-03-12 03:41:52,0.20,0.72,0.00,15.81,19.74,24.20,15.10,48.91,1023.85,2062.56,3297.82,2985.70,3382.33,599.79,614.91,8.20,0000 0000 0000 0000 000000
2016-03-12 03:46:53,0.20,0.73,0.00,15.85,19.78,24.22,15.16,48.93,1023.89,2062.12,3292.83,2982.25,3378.37,599.86,614.90,8.25,0000 0000 0000 0000 000000
2016-03-12 03:51:55,0.13,0.74,0.00,15.88,19.81,24.25,15.18,48.96,1023.92,2062.02,3289.57,2980.00,3375.86,600.56,615.68,8.30,0000 0000 0000 0000 000000
2016-03-12 03:56:56,0.12,0.75,0.00,15.92,19.85,24.28,15.08,48.98,1023.92,2062.00,3286.89,2978.12,3373.69,599.78,614.78,8.35,0000 0000 0000 0000 000000
2016-03-12 04:01:57,0.14,0.76,0.00,15.98,19.88,24.28,15.04,48.83,1023.94,2061.99,3283.94,2976.05,3371.31,599.96,614.81,8.40,0000 0000 0000 0000 000000
2016-03-12 04:06:59,0.15,0.76,0.00,16.04,19.92,24.34,15.06,48.95,1023.94,2061.97,3280.74,2973.75,3368.78,600.00,614.71,8.45,0000 0000 0000 0000 000000
2016-03-12 04:12:00,0.17,0.77,0.00,16.09,19.95,24.37,15.10,48.90,1023.94,2061.95,3277.18,2971.29,3365.94,599.70,614.36,8.50,0000 0000 0000 0000 000000
2016-03-12 04:17:01,0.14,0.78,0.00,16.13,19.99,24.43,15.04,48.87,1023.94,2061.54,3273.24,2968.54,3362.79,599.60,614.17,8.55,0000 0000 0000 0000 000000
2016-03-12 04:22:02,0.19,0.79,0.00,16.17,20.03,24.44,15.05,49.00,1023.94,2061.12,3268.90,2965.49,3359.26,600.29,614.72,8.60,0000 0000 0000 0000 000000
2016-03-12 04:27:03,0.20,0.80,0.00,16.19,20.07,24.48,15.04,49.03,1023.94,2061.02,3264.55,2962.49,3355.82,600.00,614.41,8.65,0000 0000 0000 0000 000000
2016-03-12 04:32:05,0.22,0.81,0.00,16.24,20.11,24.55,15.06,48.88,1023.94,2061.00,3260.25,2959.39,3352.23,600.17,614.55,8.70,0000 0000 0000 0000 000000
2016-03-12 04:37:06,0.21,0.82,0.00,16.27,20.16,24.60,14.98,48.85,1023.94,2060.99,3255.79,2956.30,3348.67,599.80,614.07,8.75,0000 0000 0000 0000 000000
2016-03-12 04:42:07,0.22,0.83,0.00,16.30,20.19,24.61,15.05,48.82,1023.94,2060.95,3251.23,2953.08,3345.02,599.83,614.13,8.80,0000 0000 0000 0000 000000
2016-03-12 04:47:08,0.18,0.84,0.00,16.36,20.23,24.65,14.99,48.75,1023.98,2060.67,3246.81,2949.99,3341.51,599.89,614.02,8.85,0000 0000 0000 0000 000000
2016-03-12 04:52:10,0.18,0.85,0.00,16.39,20.27,24.72,15.06,48.80,1023.97,2060.11,3242.26,2946.80,3337.89,600.05,614.10,8.90,0000 0000 0000 0000 000000
2016-03-12 04:57:11,0.24,0.86,0.00,16.40,20.31,24.78,15.07,49.04,1024.01,2060.02,3237.28,2943.33,3333.86,599.91,613.93,8.95,0000 0000 0000 0000 000000
2016-03-12 05:02:12,0.26,0.87,0.00,16.44,20.35,24.78,15.06,48.82,1023.98,2060.00,3232.05,2939.66,3329.71,599.84,613.79,9.00,0000 0000 0000 0000 000000
2016-03-12 05:07:13,0.28,0.89,0.00,16.47,20.39,24.80,15.04,48.95,1024.05,2059.99,3226.34,2935.71,3325.35,600.00,613.98,9.05,0000 0000 0000 0000 000000
2016-03-12 05:12:14,0.29,0.90,0.00,16.51,20.43,24.83,15.04,48.94,1024.15,2059.98,3220.37,2931.55,3320.66,600.12,614.04,9.10,0000 0000 0000 0000 000000
2016-03-12 05:17:15,0.26,0.92,0.00,16.55,20.46,24.87,15.09,49.06,1024.27,2059.87,3214.65,2927.60,3316.17,600.20,613.95,9.15,0000 0000 0000 0000 000000
2016-03-12 05:22:17,0.15,0.93,0.00,16.58,20.49,24.89,14.96,48.95,1024.39,2059.24,3210.04,2924.22,3312.43,599.85,613.69,9.20,0000 0000 0000 0000 000000
2016-03-12 05:27:18,0.09,0.93,0.00,16.60,20.53,24.94,15.06,48.87,1024.38,2059.06,3207.75,2922.59,3310.55,600.19,614.00,9.25,0000 0000 0000 0000 000000
2016-03-12 05:32:20,0.06,0.94,0.00,16.63,20.56,24.98,15.06,48.87,1024.42,2059.00,3206.26,2921.49,3309.20,600.08,613.85,9.30,0000 0000 0000 0000 000000
2016-03-12 05:37:21,0.07,0.94,0.00,16.66,20.59,25.01,15.05,48.87,1024.42,2059.00,3204.78,2920.47,3307.99,600.05,613.76,9.35,0000 0000 0000 0000 000000
2016-03-12 05:42:22,0.07,0.94,0.00,16.68,20.62,25.04,15.08,48.77,1024.43,2059.00,3203.32,2919.36,3306.81,599.91,613.71,9.40,0000 0000 0000 0000 000000
2016-03-12 05:47:23,0.07,0.95,0.00,16.72,20.66,25.06,15.04,48.87,1024.43,2058.98,3201.86,2918.31,3305.59,600.07,613.72,9.45,0000 0000 0000 0000 000000
2016-03-12 05:52:24,0.06,0.95,0.00,16.76,20.69,25.12,15.03,48.86,1024.43,2058.94,3200.48,2917.26,3304.37,600.30,614.01,9.50,0000 0000 0000 0000 000000
2016-03-12 05:57:26,0.04,0.95,0.00,16.78,20.72,25.13,15.09,48.88,1024.44,2058.69,3199.03,2916.12,3303.04,600.26,613.69,9.55,0000 0000 0000 0000 000000
2016-03-12 06:02:27,0.04,0.95,0.00,16.81,20.75,25.15,15.04,48.58,1024.45,2058.18,3197.52,2914.96,3301.74,600.07,613.59,9.60,0000 0000 0000 0000 000000
2016-03-12 06:07:28,0.08,0.96,0.00,16.85,20.78,25.19,15.09,48.88,1024.46,2058.03,3195.74,2913.69,3300.33,600.02,613.18,9.65,0000 0000 0000 0000 000000
2016-03-12 06:12:30,0.07,0.96,0.00,16.87,20.82,25.23,14.99,48.60,1024.46,2058.01,3194.15,2912.55,3298.90,599.94,613.27,9.70,0000 0000 0000 0000 000000
2016-03-12 06:17:31,0.08,0.97,0.00,16.91,20.85,25.25,14.87,48.57,1024.56,2058.00,3192.45,2911.35,3297.50,599.55,613.00,9.76,0000 0000 0000 0000 000000
2016-03-12 06:22:32,0.12,0.97,0.00,16.92,20.88,25.29,15.06,48.77,1024.73,2058.00,3190.15,2909.65,3295.63,600.12,613.52,9.81,0000 0000 0000 0000 000000
2016-03-12 06:27:33,0.11,0.98,0.00,16.96,20.91,25.30,15.03,48.59,1024.79,2057.98,3187.63,2907.94,3293.62,600.05,613.36,9.86,0000 0000 0000 0000 000000
2016-03-12 06:32:34,0.11,0.99,0.00,17.00,20.93,25.32,15.04,48.84,1024.66,2057.92,3185.06,2906.26,3291.64,600.10,613.23,9.91,0000 0000 0000 0000 000000
2016-03-12 06:37:36,0.08,0.99,0.00,17.02,20.96,25.35,15.09,48.87,1024.58,2057.58,3182.40,2904.50,3289.50,600.41,613.57,9.96,0000 0000 0000 0000 000000
2016-03-12 06:42:36,0.09,0.99,0.00,17.05,20.99,25.38,15.04,48.88,1024.81,2057.11,3179.91,2902.79,3287.60,600.34,613.51,10.01,0000 0000 0000 0000 000000
2016-03-12 06:47:38,0.09,1.00,0.00,17.06,21.02,25.42,15.06,48.85,1024.91,2057.03,3177.83,2901.42,3285.93,599.91,613.13,10.06,0000 0000 0000 0000 000000
2016-03-12 06:52:39,0.08,1.00,0.00,17.09,21.05,25.45,14.98,48.76,1024.92,2057.01,3176.06,2900.15,3284.41,599.96,613.16,10.11,0000 0000 0000 0000 000000
2016-03-12 06:57:40,0.08,1.01,0.00,17.12,21.08,25.48,15.08,48.77,1024.92,2057.00,3174.33,2898.88,3282.95,600.28,613.36,10.16,0000 0000 0000 0000 000000
2016-03-12 07:02:41,0.08,1.01,0.00,17.15,21.11,25.50,15.05,48.85,1024.92,2057.00,3172.77,2897.77,3281.68,600.13,613.13,10.21,0000 0000 0000 0000 000000
2016-03-12 07:07:43,0.08,1.02,0.00,17.18,21.13,25.54,15.05,48.83,1024.92,2056.98,3171.19,2896.60,3280.34,599.98,612.89,10.26,0000 0000 0000 0000 000000
2016-03-12 07:12:44,0.08,1.02,0.00,17.20,21.16,25.56,15.04,48.73,1024.93,2056.98,3169.58,2895.48,3278.93,600.10,613.02,10.31,0000 0000 0000 0000 000000
2016-03-12 07:17:45,0.05,1.02,0.00,17.22,21.18,25.56,15.08,48.57,1024.94,2056.88,3168.19,2894.53,3277.81,600.14,613.07,10.36,0000 0000 0000 0000 000000
2016-03-12 07:22:47,0.02,1.03,0.00,17.25,21.21,25.59,15.00,48.42,1025.14,2056.43,3166.67,2893.56,3276.69,599.78,612.84,10.41,0000 0000 0000 0000 000000
2016-03-12 07:27:48,0.05,1.03,0.00,17.27,21.22,25.62,14.91,48.32,1025.34,2056.09,3165.19,2892.55,3275.53,599.52,612.57,10.46,0000 0000 0000 0000 000000
2016-03-12 07:32:49,0.07,1.03,0.00,17.31,21.24,25.64,15.01,48.31,1025.38,2056.03,3163.79,2891.59,3274.43,600.21,613.22,10.51,0000 0000 0000 0000 000000
2016-03-12 07:37:51,0.04,1.03,0.00,17.32,21.26,25.66,14.95,48.33,1025.37,2056.00,3162.63,2890.89,3273.46,599.77,612.69,10.56,0000 0000 0000 0000 000000
2016-03-12 07:42:52,0.05,1.04,0.00,17.33,21.27,25.63,15.06,48.36,1025.34,2056.00,3161.59,2890.07,3272.71,600.58,613.51,10.61,0000 0000 0000 0000 000000
2016-03-12 07:47:53,0.05,1.04,0.00,17.35,21.29,25.65,14.97,48.31,1025.39,2056.00,3160.53,2889.45,3271.78,599.87,612.83,10.66,0000 0000 0000 0000 000000
2016-03-12 07:52:54,0.06,1.04,0.00,17.38,21.29,25.67,14.93,48.27,1025.40,2056.00,3159.35,2888.60,3270.81,599.94,612.76,10.71,0000 0000 0000 0000 000000
2016-03-12 07:57:56,0.05,1.04,0.00,17.41,21.32,25.70,14.93,48.08,1025.40,2055.99,3158.09,2887.80,3269.72,599.51,612.30,10.76,0000 0000 0000 0000 000000
2016-03-12 08:02:57,0.05,1.05,0.00,17.41,21.32,25.71,14.99,48.08,1025.40,2055.98,3156.73,2886.92,3268.79,600.26,612.99,10.81,0000 0000 0000 0000 000000
2016-03-12 08:07:58,0.06,1.05,0.00,17.43,21.33,25.70,14.99,48.23,1025.41,2055.97,3155.39,2886.04,3267.79,600.17,612.86,10.86,0000 0000 0000 0000 000000
2016-03-12 08:12:59,0.07,1.05,0.00,17.44,21.34,25.74,14.94,48.24,1025.42,2055.96,3153.86,2885.13,3266.69,600.01,612.65,10.91,0000 0000 0000 0000 000000
2016-03-12 08:18:01,0.05,1.06,0.00,17.46,21.34,25.73,14.92,48.12,1025.44,2055.93,3152.70,2884.19,3265.80,599.85,612.63,10.96,0000 0000 0000 0000 000000
2016-03-12 08:23:02,0.04,1.06,0.00,17.48,21.34,25.69,14.98,48.08,1025.46,2055.90,3151.52,2883.61,3264.94,600.12,612.77,11.01,0000 0000 0000 0000 000000
2016-03-12 08:28:04,0.04,1.06,0.00,17.51,21.35,25.72,14.95,48.04,1025.62,2055.83,3150.35,2882.92,3264.06,599.68,612.48,11.06,0000 0000 0000 0000 000000
2016-03-12 08:33:05,0.06,1.07,0.00,17.55,21.35,25.74,15.03,48.17,1025.75,2055.84,3149.15,2882.07,3263.20,600.16,612.93,11.11,0000 0000 0000 0000 000000
2016-03-12 08:38:06,0.04,1.07,0.00,17.57,21.35,25.75,15.02,48.02,1025.85,2055.67,3148.06,2881.29,3262.41,599.89,612.60,11.16,0000 0000 0000 0000 000000
2016-03-12 08:43:07,0.05,1.07,0.00,17.56,21.35,25.74,15.02,48.27,1025.89,2055.53,3146.81,2880.57,3261.56,599.85,612.58,11.21,0000 0000 0000 0000 000000
2016-03-12 08:48:08,0.03,1.07,0.00,17.56,21.35,25.73,15.02,48.03,1025.89,2055.38,3145.55,2879.83,3260.68,600.06,612.73,11.26,0000 0000 0000 0000 000000
2016-03-12 08:53:10,0.06,1.08,0.00,17.55,21.35,25.77,15.04,48.20,1025.89,2055.43,3144.27,2879.04,3259.78,600.37,612.91,11.31,0000 0000 0000 0000 000000
2016-03-12 08:58:11,0.05,1.08,0.00,17.51,21.34,25.76,15.02,47.97,1025.89,2055.38,3142.84,2878.31,3258.74,599.99,612.82,11.36,0000 0000 0000 0000 000000
2016-03-12 09:03:12,0.07,1.08,0.00,17.49,21.34,25.78,15.02,47.94,1025.90,2055.23,3141.35,2877.30,3257.65,600.18,612.90,11.41,0000 0000 0000 0000 000000
2016-03-12 09:08:14,0.07,1.09,0.00,17.49,21.34,25.78,15.11,48.13,1025.91,2055.24,3139.78,2876.35,3256.53,600.33,613.06,11.46,0000 0000 0000 0000 000000
2016-03-12 09:13:15,0.07,1.09,0.00,17.46,21.34,25.81,15.02,47.92,1025.95,2055.31,3138.64,2875.57,3255.52,599.98,612.95,11.51,0000 0000 0000 0000 000000
2016-03-12 09:18:16,0.06,1.09,0.00,17.44,21.33,25.78,15.04,48.08,1026.10,2055.26,3137.28,2874.69,3254.56,600.23,613.34,11.56,0000 0000 0000 0000 000000
2016-03-12 09:23:18,0.11,1.10,0.00,17.42,21.32,25.79,15.02,48.07,1026.21,2055.46,3135.45,2873.58,3253.38,599.90,613.20,11.61,0000 0000 0000 0000 000000
2016-03-12 09:28:19,0.14,1.10,0.00,17.40,21.31,25.77,15.03,48.24,1026.37,2055.83,3133.17,2872.06,3251.71,600.09,613.50,11.66,0000 0000 0000 0000 000000
2016-03-12 09:33:20,0.11,1.11,0.00,17.38,21.30,25.78,15.03,48.02,1026.38,2055.85,3130.75,2870.50,3249.90,599.79,613.17,11.71,0000 0000 0000 0000 000000
2016-03-12 09:38:21,0.13,1.12,0.00,17.37,21.29,25.75,14.99,47.86,1026.38,2055.92,3128.40,2869.01,3248.13,600.09,613.52,11.76,0000 0000 0000 0000 000000
2016-03-12 09:43:23,0.12,1.12,0.00,17.34,21.29,25.70,15.07,47.93,1026.38,2055.92,3125.60,2867.06,3245.99,600.04,613.51,11.81,0000 0000 0000 0000 000000
2016-03-12 09:48:24,0.11,1.13,0.00,17.32,21.27,25.69,15.01,47.99,1026.38,2055.95,3123.43,2865.66,3244.44,599.90,613.34,11.86,0000 0000 0000 0000 000000
2016-03-12 09:53:25,0.12,1.13,0.00,17.31,21.27,25.70,14.95,47.72,1026.38,2055.96,3121.04,2864.10,3242.64,599.81,613.30,11.91,0000 0000 0000 0000 000000
2016-03-12 09:58:26,0.20,1.14,0.00,17.28,21.25,25.70,15.03,47.88,1026.38,2055.98,3117.43,2861.71,3239.99,599.96,613.65,11.96,0000 0000 0000 0000 000000
2016-03-12 10:03:27,0.19,1.15,0.00,17.25,21.24,25.67,14.93,47.81,1026.40,2055.97,3113.15,2858.92,3236.91,599.52,613.32,12.01,0000 0000 0000 0000 000000
2016-03-12 10:08:29,0.19,1.16,0.00,17.23,21.23,25.65,15.03,47.90,1026.42,2055.96,3109.29,2856.34,3234.10,599.85,613.61,12.06,0000 0000 0000 0000 000000
2016-03-12 10:13:30,0.19,1.17,0.00,17.23,21.22,25.62,15.05,48.05,1026.43,2055.96,3105.35,2853.81,3231.28,600.16,613.87,12.12,0000 0000 0000 0000 000000
2016-03-12 10:18:31,0.34,1.19,0.00,17.21,21.20,25.63,15.15,48.32,1026.43,2055.99,3099.10,2849.78,3226.84,600.20,613.99,12.17,0000 0000 0000 0000 000000
2016-03-12 10:23:33,0.36,1.21,0.00,17.18,21.19,25.57,15.02,48.23,1026.48,2055.99,3091.88,2844.92,3221.52,599.99,613.86,12.22,0000 0000 0000 0000 000000
2016-03-12 10:28:34,0.31,1.22,0.00,17.15,21.17,25.57,15.01,47.95,1026.58,2055.99,3085.26,2840.48,3216.50,599.73,613.77,12.27,0000 0000 0000 0000 000000
2016-03-12 10:33:35,0.25,1.24,0.00,17.13,21.17,25.59,14.98,47.91,1026.76,2055.99,3080.07,2837.09,3212.68,600.02,614.18,12.32,0000 0000 0000 0000 000000
2016-03-12 10:38:36,0.19,1.25,0.00,17.11,21.14,25.55,15.06,47.71,1026.84,2055.99,3075.94,2834.40,3209.71,600.31,614.56,12.37,0000 0000 0000 0000 000000
2016-03-12 10:43:38,0.20,1.26,0.00,17.08,21.14,25.53,15.01,47.95,1026.86,2055.99,3071.82,2831.68,3206.75,599.80,614.02,12.42,0000 0000 0000 0000 000000
2016-03-12 10:48:39,0.23,1.27,0.00,17.05,21.12,25.49,15.09,48.06,1026.87,2055.99,3067.38,2828.71,3203.43,600.04,614.49,12.47,0000 0000 0000 0000 000000
2016-03-12 10:53:41,0.23,1.28,0.00,17.03,21.10,25.48,15.05,48.03,1026.87,2055.99,3062.50,2825.51,3199.91,600.20,614.64,12.52,0000 0000 0000 0000 000000
2016-03-12 10:58:42,0.15,1.29,0.00,17.01,21.09,25.49,15.04,47.95,1026.87,2056.00,3059.16,2823.39,3197.58,599.78,614.32,12.57,0000 0000 0000 0000 000000
2016-03-12 11:03:43,0.19,1.30,0.00,16.99,21.07,25.44,15.09,48.04,1026.87,2056.01,3055.45,2820.99,3194.97,599.93,614.52,12.62,0000 0000 0000 0000 000000
2016-03-12 11:08:44,0.18,1.31,0.00,16.97,21.05,25.43,15.07,48.11,1026.87,2056.02,3051.60,2818.47,3192.20,600.36,614.98,12.67,0000 0000 0000 0000 000000
2016-03-12 11:13:46,0.15,1.32,0.00,16.93,21.03,25.40,15.05,47.88,1026.87,2056.03,3048.41,2816.40,3189.74,599.92,614.54,12.72,0000 0000 0000 0000 000000
2016-03-12 11:18:47,0.17,1.33,0.00,16.89,21.01,25.40,15.07,48.03,1026.87,2056.03,3045.06,2814.28,3187.31,599.88,614.63,12.77,0000 0000 0000 0000 000000
2016-03-12 11:23:48,0.20,1.33,0.00,16.88,20.99,25.39,15.06,47.93,1026.87,2056.24,3041.72,2812.15,3184.95,599.86,614.63,12.82,0000 0000 0000 0000 000000
2016-03-12 11:28:49,0.17,1.34,0.00,16.87,20.97,25.37,15.09,47.93,1026.87,2056.47,3038.44,2810.10,3182.76,599.90,614.73,12.87,0000 0000 0000 0000 000000
2016-03-12 11:33:50,0.09,1.35,0.00,16.84,20.95,25.34,14.95,47.90,1026.87,2056.66,3036.27,2808.72,3181.19,599.50,614.31,12.92,0000 0000 0000 0000 000000
2016-03-12 11:38:52,0.12,1.36,0.00,16.80,20.93,25.30,15.06,48.14,1026.87,2056.80,3034.41,2807.52,3179.75,600.01,614.93,12.97,0000 0000 0000 0000 000000
2016-03-12 11:43:53,0.09,1.36,0.00,16.79,20.90,25.27,15.13,47.92,1026.87,2056.94,3032.47,2806.33,3178.42,600.33,615.23,13.02,0000 0000 0000 0000 000000
2016-03-12 11:48:55,0.08,1.37,0.00,16.75,20.88,25.25,15.08,47.95,1026.87,2056.96,3030.65,2805.15,3177.20,600.41,615.44,13.07,0000 0000 0000 0000 000000
2016-03-12 11:53:56,0.07,1.37,0.00,16.72,20.86,25.23,15.07,48.04,1026.87,2056.98,3029.40,2804.31,3176.30,599.87,614.98,13.12,0000 0000 0000 0000 000000
2016-03-12 11:58:57,0.04,1.37,0.00,16.68,20.83,25.22,15.08,47.83,1026.87,2056.99,3028.33,2803.79,3175.55,599.86,615.20,13.17,0000 0000 0000 0000 000000
2016-03-12 12:03:58,0.04,1.38,0.00,16.65,20.81,25.14,15.03,47.81,1026.87,2056.99,3027.31,2803.05,3174.96,599.86,615.18,13.22,0000 0000 0000 0000 000000
2016-03-12 12:09:00,0.05,1.38,0.00,16.62,20.79,25.16,15.06,47.85,1026.87,2056.99,3026.34,2802.51,3174.13,599.95,615.25,13.27,0000 0000 0000 0000 000000
2016-03-12 12:14:01,0.03,1.38,0.00,16.58,20.77,25.11,15.07,47.85,1026.87,2057.01,3025.52,2802.00,3173.43,599.99,615.42,13.32,0000 0000 0000 0000 000000
2016-03-12 12:19:02,0.04,1.38,0.00,16.56,20.74,25.09,15.11,48.27,1026.87,2057.01,3024.57,2801.33,3172.97,600.00,615.43,13.37,0000 0000 0000 0000 000000
2016-03-12 12:24:04,0.03,1.38,0.00,16.52,20.72,25.06,14.98,47.83,1026.87,2057.05,3023.83,2801.00,3172.18,600.13,615.57,13.42,0000 0000 0000 0000 000000
2016-03-12 12:29:05,0.06,1.39,0.00,16.50,20.69,25.03,14.99,47.83,1026.87,2057.20,3023.00,2800.52,3171.92,599.96,615.57,13.47,0000 0000 0000 0000 000000
2016-03-12 12:34:06,0.06,1.39,0.00,16.47,20.67,25.00,15.17,48.00,1026.87,2057.47,3022.11,2800.01,3171.12,600.27,615.96,13.52,0000 0000 0000 0000 000000
2016-03-12 12:39:08,0.08,1.39,0.00,16.43,20.64,25.00,15.06,47.90,1026.87,2057.77,3021.25,2799.58,3170.68,599.97,615.66,13.57,0000 0000 0000 0000 000000
2016-03-12 12:44:09,0.04,1.40,0.00,16.41,20.62,24.97,15.04,48.27,1026.86,2057.95,3020.43,2799.01,3170.02,599.84,615.66,13.62,0000 0000 0000 0000 000000
2016-03-12 12:49:10,0.03,1.40,0.00,16.38,20.59,24.93,15.14,48.17,1026.87,2057.97,3019.90,2798.70,3169.50,599.86,615.65,13.67,0000 0000 0000 0000 000000
2016-03-12 12:54:11,0.03,1.40,0.00,16.34,20.57,24.92,15.15,47.93,1026.87,2057.98,3019.08,2798.05,3169.00,600.16,616.03,13.72,0000 0000 0000 0000 000000